EST,Max TemperatureF,Mean TemperatureF,Min TemperatureF,Max Dew PointF,MeanDew PointF,Min DewpointF,Max Humidity, Mean Humidity, Min Humidity, Max Sea Level PressureIn, Mean Sea Level PressureIn, Min Sea Level PressureIn, Max VisibilityMiles, Mean VisibilityMiles, Min VisibilityMiles, Max Wind SpeedMPH, Mean Wind SpeedMPH, Max Gust SpeedMPH,PrecipitationIn, CloudCover, Events, WindDirDegrees
2012-11-1,36,34,33,35,32,30,100,93,87,29.76,29.69,29.63,10,8,2,22,15,31,0.07,8,Rain-Snow,264
2012-11-2,36,34,30,31,30,28,96,87,75,29.96,29.78,29.67,10,8,0,20,13,30,0.04,8,Fog-Snow,281
2012-11-3,35,32,30,31,29,26,93,85,75,30.11,30.01,29.90,10,8,2,21,15,29,0.00,8,Rain-Snow,299
2012-11-4,33,32,30,27,23,22,82,72,66,30.10,30.09,30.07,10,10,10,14,9,20,0.00,8,,311
2012-11-5,34,31,28,23,22,18,78,69,61,30.18,30.12,30.07,10,10,10,14,8,17,0.00,8,,324
2012-11-6,37,30,24,22,20,17,78,68,52,30.16,30.09,30.01,10,10,10,14,4,20,0.00,0,,130
2012-11-7,35,30,24,22,19,14,84,65,48,30.02,29.98,29.94,10,10,9,8,5,,0.00,1,,37
2012-11-8,39,31,23,27,21,14,82,69,46,30.15,30.09,30.01,10,10,10,17,9,25,0.00,1,,298
2012-11-9,46,37,28,31,29,25,93,73,52,30.26,30.20,30.07,10,10,8,13,8,21,0.00,3,,270
2012-11-10,60,50,39,34,31,28,66,51,35,30.31,30.27,30.22,10,10,10,12,6,17,0.00,4,Rain,209
2012-11-11,66,58,50,35,33,28,54,42,26,30.40,30.33,30.29,10,10,10,15,8,23,0.00,0,,178
2012-11-12,62,48,35,49,43,35,100,77,53,30.28,30.19,30.05,10,8,1,24,15,41,0.32,4,Rain,207
2012-11-13,35,32,28,34,23,19,96,77,64,30.52,30.37,30.24,10,10,6,21,13,32,0.02,8,Rain-Snow,288
2012-11-14,35,31,27,21,20,20,78,69,57,30.57,30.50,30.43,10,10,10,7,5,,0.00,4,,63
2012-11-15,39,33,27,25,23,20,79,68,53,30.39,30.35,30.31,10,10,10,8,4,,0.00,0,,152
2012-11-16,45,36,27,26,24,22,89,65,44,30.49,30.40,30.32,10,10,10,10,4,,0.00,0,,327
2012-11-17,48,38,28,26,24,21,78,58,34,30.61,30.57,30.49,10,10,10,7,5,,0.00,0,,75
2012-11-18,46,38,30,29,27,25,82,65,49,30.60,30.55,30.51,10,10,8,15,5,,0.00,0,,138
2012-11-19,46,40,33,34,30,28,89,77,51,30.48,30.37,30.18,10,9,7,8,6,,0.00,3,,160
2012-11-20,46,40,33,32,30,27,89,69,46,30.21,30.16,30.11,10,10,8,8,4,,0.00,0,,258
2012-11-21,53,42,32,31,26,22,82,54,32,30.24,30.20,30.14,10,10,9,8,4,,0.00,0,,294
2012-11-22,55,44,32,27,24,18,70,48,24,30.27,30.20,30.07,10,10,10,9,5,,0.00,0,,215
2012-11-23,50,38,26,43,34,18,100,74,42,30.06,29.86,29.77,10,8,0,25,11,36,0.06,6,Fog-Rain,236
2012-11-24,26,24,23,22,20,16,88,83,71,30.04,29.92,29.84,10,3,1,24,17,34,0.01,8,Snow,279
2012-11-25,32,26,21,19,17,14,93,70,50,30.03,29.95,29.88,10,8,1,17,13,31,0.00,5,Snow,252
2012-11-26,39,34,28,25,22,19,76,63,45,30.21,30.13,29.98,10,10,8,14,9,18,0.00,3,,266
2012-11-27,33,30,27,29,26,19,96,86,61,30.28,30.19,30.13,10,5,0,9,3,,0.03,8,Fog-Snow,335
2012-11-28,32,29,26,19,18,15,72,63,52,30.35,30.28,30.20,10,10,10,18,9,26,0.00,5,,274
2012-11-29,39,32,26,21,18,15,78,60,39,30.41,30.34,30.27,10,9,6,10,7,,0.00,2,,239
2012-11-30,46,39,32,26,22,17,57,51,42,30.32,30.29,30.24,10,10,10,9,5,,0.00,3,,190